Home   Weather   Kwajalein   Past weeks

Flag for Marshall Islands Past Weather in Kwajalein, Marshall Islands — Yesterday and Last 2 Weeks

Now
81 °F

Passing clouds.


Feels Like: 86 °F
Forecast: 80 / 86 °F
Wind: 15 mph from East

Location: Kwajalein / Bucholz

Current Time: Dec 10, 2016 at 3:54:32 am

Latest Report: Dec 10, 2016 at 3:20 am


Visibility: 10 mi

Pressure: 29.76 "Hg

Humidity: 76%

Dew Point: 73 °F

Location of KwajaleinLocation

Past Weather in Kwajalein — Graph

°F

Kwajalein Temperature Yesterday

Maximum temperature yesterday: 87 °F (at 1:40 pm)
Minimum temperature yesterday: 80 °F (at 4:40 am)
Average temperature yesterday: 83 °F

High & Low Weather Summary for the Past Weeks

 TemperatureHumidityPressure
High89 °F (Dec 8, 1:20 pm)92% (Nov 29, 11:20 pm)29.88 "Hg (Nov 29, 11:20 pm)
Low79 °F (Dec 1, 2:00 pm)53% (Dec 8, 12:40 pm)29.69 "Hg (Nov 25, 2:20 pm)
Average83 °F75%29.80 "Hg
* Reported Nov 25 2:00 am — Dec 10 2:40 am, Kwajalein, Weather by CustomWeather, © 2016

Note: Actual official high and low records may vary slightly from our data, if they occured in-between our weather recording intervals... More about our weather records

Advertising

Kwajalein Weather History for the Previous 24 Hours

Scroll right to see more
 ConditionsComfort  
Time TempWeatherWind HumidityBarometerVisibility
2:40 am
Sat, Dec 10
81 °FPassing clouds.13 mph75%29.77 "Hg10 mi
2:20 am81 °FPartly cloudy.14 mph75%29.78 "Hg10 mi
2:00 am81 °FPartly cloudy.12 mph76%29.78 "Hg10 mi
1:20 am81 °FMostly cloudy.15 mph76%29.79 "Hg10 mi
1:00 am81 °FMostly cloudy.14 mph76%29.79 "Hg10 mi
12:40 am81 °FMostly cloudy.13 mph77%29.79 "Hg10 mi
12:20 am81 °FPartly cloudy.15 mph77%29.80 "Hg10 mi
12:00 am81 °FPassing clouds.15 mph77%29.80 "Hg10 mi
11:20 pm
Fri, Dec 9
81 °FPassing clouds.15 mph77%29.80 "Hg10 mi
11:00 pm81 °FPassing clouds.15 mph76%29.80 "Hg10 mi
10:40 pm81 °FClear.15 mph76%29.80 "Hg10 mi
10:20 pm82 °FPassing clouds.16 mph75%29.80 "Hg10 mi
10:00 pm82 °FPassing clouds.16 mph75%29.80 "Hg10 mi
9:40 pm82 °FPassing clouds.18 mph75%29.80 "Hg10 mi
9:20 pm82 °FPassing clouds.16 mph74%29.79 "Hg10 mi
9:00 pm82 °FPassing clouds.17 mph74%29.79 "Hg10 mi
8:40 pm82 °FPassing clouds.16 mph75%29.79 "Hg10 mi
8:20 pm82 °FPartly cloudy.17 mph75%29.79 "Hg10 mi
8:00 pm82 °FPassing clouds.16 mph74%29.79 "Hg10 mi
7:20 pm82 °FPassing clouds.15 mph74%29.78 "Hg10 mi
7:00 pm82 °FClear.16 mph74%29.78 "Hg10 mi
6:40 pm83 °FClear.16 mph72%29.77 "Hg10 mi
6:20 pm83 °FSunny.16 mph72%29.76 "Hg10 mi
6:00 pm84 °FScattered clouds.18 mph71%29.76 "Hg10 mi
5:40 pm84 °FSunny.13 mph70%29.75 "Hg10 mi
5:20 pm84 °FScattered clouds.15 mph70%29.75 "Hg10 mi
4:40 pm85 °FScattered clouds.16 mph69%29.74 "Hg10 mi
4:20 pm85 °FSunny.14 mph68%29.74 "Hg10 mi
4:00 pm85 °FScattered clouds.14 mph67%29.73 "Hg10 mi
3:40 pm85 °FScattered clouds.17 mph66%29.73 "Hg10 mi
3:20 pm86 °FSunny.15 mph65%29.73 "Hg10 mi
3:00 pm86 °FSunny.15 mph64%29.73 "Hg10 mi
2:40 pm87 °FSunny.13 mph63%29.73 "Hg10 mi
2:20 pm87 °FSunny.14 mph61%29.74 "Hg10 mi
2:00 pm87 °FSunny.15 mph61%29.75 "Hg10 mi
1:40 pm87 °FSunny.16 mph61%29.75 "Hg10 mi
1:20 pm87 °FSunny.15 mph60%29.77 "Hg10 mi
1:00 pm87 °FSunny.16 mph60%29.78 "Hg10 mi
12:40 pm86 °FSunny.17 mph60%29.79 "Hg10 mi
12:20 pm86 °FSunny.16 mph59%29.79 "Hg10 mi
12:00 pm86 °FScattered clouds.17 mph59%29.80 "Hg10 mi
11:40 am86 °FSunny.15 mph58%29.81 "Hg10 mi
11:20 am86 °FSunny.16 mph58%29.82 "Hg10 mi
11:00 am86 °FSunny.17 mph58%29.83 "Hg10 mi
10:40 am85 °FSunny.15 mph59%29.83 "Hg10 mi
10:20 am85 °FWarm.14 mph60%29.83 "Hg10 mi
10:00 am84 °FWarm.17 mph61%29.84 "Hg10 mi
9:40 am83 °FWarm.16 mph63%29.84 "Hg10 mi
9:20 am83 °FWarm.15 mph63%29.84 "Hg10 mi
9:00 am82 °FWarm.17 mph64%29.84 "Hg10 mi
8:40 am82 °FWarm.17 mph64%29.84 "Hg10 mi
8:20 am81 °FSunny.16 mph62%29.83 "Hg10 mi
8:00 am81 °FSunny.14 mph63%29.83 "Hg10 mi
7:20 am81 °FSunny.16 mph63%29.81 "Hg10 mi
7:00 am81 °FScattered clouds.16 mph63%29.81 "Hg10 mi
6:20 am80 °FClear.17 mph65%29.79 "Hg10 mi
6:00 am80 °FClear.15 mph65%29.78 "Hg10 mi
5:20 am80 °FClear.17 mph66%29.77 "Hg10 mi
5:00 am80 °FClear.15 mph66%29.77 "Hg10 mi
4:40 am80 °FClear.14 mph66%29.77 "Hg10 mi
4:20 am80 °FClear.14 mph66%29.76 "Hg10 mi
4:00 am81 °FClear.16 mph67%29.75 "Hg10 mi
3:40 am81 °FClear.17 mph67%29.75 "Hg10 mi
3:20 am81 °FClear.15 mph67%29.75 "Hg10 mi
3:00 am81 °FPassing clouds.16 mph67%29.75 "Hg10 mi
Weather by CustomWeather, © 2016

See weather overviewHow to use our weather pages